Weather History for Francistown, Botswana

Change the Weather History Date:

Friday, October 5, 2012

  Actual Average Record
Temperature  
Mean Temperature 86 °F -  
Max Temperature 99 °F 87 °F 102 °F (2005)
Min Temperature 73 °F 62 °F 53 °F (2011)
Cooling Degree Days 21    
Growing Degree Days 36 (Base 50)    
Moisture  
Dew Point 23 °F    
Average Humidity 14    
Maximum Humidity 77    
Minimum Humidity 4    
Precipitation  
Precipitation 0.00 in - - ()
Sea Level Pressure  
Sea Level Pressure 30.00 in    
Wind  
Wind Speed 7 mph ()    
Max Wind Speed 23 mph    
Max Gust Speed 28 mph    
Visibility 6.0 miles    
Events      
Averages and records for this station are not official NWS values.
T = Trace of Precipitation, MM = Missing Value Source: Averaged Metar Reports

Daily Weather History Graph

Daily Weather History Graph

Search for Another Location

Airport:

Trip Planner

Search our weather history database for the weather conditions in past years. The results will help you decide how hot, cold, wet, or windy it might be!

Date:

Astronomy

Oct. 05, 2012 Rise Set
Actual Time 5:47 AM CAT 6:09 PM CAT
Civil Twilight 5:25 AM CAT 6:32 PM CAT
Nautical Twilight 4:59 AM CAT 6:58 PM CAT
Astronomical Twilight 4:32 AM CAT 7:24 PM CAT
Moon 10:45 PM CAT (10/5) 9:10 AM CAT (10/5)
Length of Visible Light 13h 07m
Length of Day
12h 22m
Waning Gibbous, 76% of the Moon is Illuminated
Oct 5
Waning Gibbous
Oct 8
Last Quarter
Oct 15
New
Oct 22
First Quarter
Oct 29
Full

Hourly Weather History & Observations

Time (CAT) Temp. Dew Point Humidity Pressure Visibility Wind Dir Wind Speed Gust Speed Precip Events Conditions
12:00 AM 60.8 °F 15.8 °F 17% 30.01 in - NNW 4.6 mph - N/A   Clear
2:00 AM 57 °F 30 °F 24%  in 6 mi NNE 2.3 mph - -  
2:00 AM 57.2 °F 14.0 °F 18% 29.98 in - Variable 2.3 mph - N/A   Clear
3:00 AM 57.2 °F 50.0 °F 77% 29.98 in - NNE 3.5 mph - N/A   Clear
6:00 AM 53.6 °F 15.8 °F 22% 30.01 in - SE 1.2 mph - N/A   Clear
7:00 AM 62.6 °F 17.6 °F 18% 30.01 in - Variable 1.2 mph - N/A   Clear
8:00 AM 78 °F 18 °F 4%  in 6 mi 2.3 mph - -  
8:00 AM 78.8 °F 17.6 °F 10% 30.04 in - Variable 2.3 mph - N/A   Clear
9:00 AM 84.2 °F 19.4 °F 9% 30.04 in - ESE 6.9 mph - N/A   Clear
10:00 AM 91.4 °F 21.2 °F 8% 30.04 in - East 23.0 mph - N/A   Clear
11:00 AM 93.2 °F 21.2 °F 7% 30.04 in - East 15.0 mph 27.6 mph N/A   Clear
12:00 PM 95.0 °F 21.2 °F 7% 30.01 in - ESE 19.6 mph - N/A   Clear
1:00 PM 96.8 °F 19.4 °F 6% 29.98 in - ESE 21.9 mph - N/A   Clear
2:00 PM 97 °F 19 °F 4%  in 6 mi NE 11.5 mph - -  
2:00 PM 96.8 °F 19.4 °F 6% 29.95 in - NE 11.5 mph - N/A   Clear
3:00 PM 96.8 °F 15.8 °F 5% 29.95 in - ESE 16.1 mph - N/A   Clear
4:00 PM 96.8 °F 15.8 °F 5% 29.95 in - ESE 16.1 mph - N/A   Clear
5:00 PM 95.0 °F 21.2 °F 7% 29.95 in - East 9.2 mph - N/A   Clear
6:00 PM 91.4 °F 23.0 °F 8% 29.95 in - East 15.0 mph - N/A   Clear
7:00 PM 86.0 °F 23.0 °F 10% 29.95 in - ESE 9.2 mph - N/A   Clear
8:00 PM 82 °F 24 °F 5%  in 6 mi ESE 10.4 mph - -  
8:00 PM 80.6 °F 24.8 °F 13% 30.01 in - ESE 10.4 mph - N/A   Clear
9:00 PM 78.8 °F 28.4 °F 16% 30.04 in - ESE 9.2 mph - N/A   Clear
10:00 PM 75.2 °F 30.2 °F 19% 30.04 in - ESE 6.9 mph - N/A   Clear
11:00 PM 78.8 °F 42.8 °F 28% 30.04 in - ESE 11.5 mph - N/A   Clear